,,PA_Meas_PMT16A,,PR_Meas_QMR101_102,,RH_Meas_QMH101,,SR_Meas_QMS101,,TA_Meas_QMH101,,GenWind,,GenWind,
time,status,PA,status,PR,status,RH,status,SR,status,TA,status,DirAvg,status,SpdAvg,
2011-12-05, 00:00:04,VALID,917.615,VALID,0,VALID,95.1021,VALID,0,VALID,19.9563,VALID,1,VALID,0.585938,
2011-12-05, 00:01:04,VALID,917.617,VALID,0,VALID,95.2012,VALID,0,VALID,19.9758,VALID,1,VALID,0.682813,
2011-12-05, 00:02:04,VALID,917.596,VALID,0,VALID,95.2088,VALID,0,VALID,19.9758,VALID,1,VALID,0.798047,
2011-12-05, 00:03:04,VALID,917.568,VALID,0,VALID,95.4757,VALID,0,VALID,19.9758,VALID,1,VALID,0.807031,
2011-12-05, 00:04:04,VALID,917.556,VALID,0,VALID,95.6205,VALID,0,VALID,20.0148,VALID,1,VALID,0.75625,
2011-12-05, 00:05:04,VALID,917.587,VALID,0,VALID,95.7958,VALID,0,VALID,20.0343,VALID,1,VALID,0.574219,
2011-12-05, 00:06:04,VALID,917.582,VALID,0,VALID,95.8111,VALID,0,VALID,20.0148,VALID,1,VALID,0.507813,
2011-12-05, 00:07:04,VALID,917.636,VALID,0,VALID,95.7349,VALID,0,VALID,19.9953,VALID,1,VALID,0.611328,
2011-12-05, 00:08:04,VALID,917.628,VALID,0,VALID,95.7044,VALID,0,VALID,19.9953,VALID,1,VALID,0.524609,
2011-12-05, 00:09:04,VALID,917.664,VALID,0,VALID,95.6586,VALID,0,VALID,19.9563,VALID,1,VALID,0.523047,
2011-12-05, 00:10:04,VALID,917.645,VALID,0,VALID,95.6662,VALID,0,VALID,19.8978,VALID,1,VALID,0.50625,
2011-12-05, 00:11:04,VALID,917.638,VALID,0,VALID,95.5748,VALID,0,VALID,19.8783,VALID,1,VALID,0.3125,
2011-12-05, 00:12:04,VALID,917.671,VALID,0,VALID,95.5367,VALID,0,VALID,19.8588,VALID,1,VALID,0.0515625,
2011-12-05, 00:13:04,VALID,917.632,VALID,0,VALID,95.6815,VALID,0,VALID,19.8783,VALID,1,VALID,0,
2011-12-05, 00:14:04,VALID,917.61,VALID,0,VALID,95.6281,VALID,0,VALID,19.8993,VALID,1,VALID,0,
2011-12-05, 00:15:04,VALID,917.603,VALID,0,VALID,95.5443,VALID,0,VALID,19.8588,VALID,1,VALID,0,
2011-12-05, 00:16:04,VALID,917.628,VALID,0,VALID,95.4375,VALID,0,VALID,19.8588,VALID,1,VALID,0,
2011-12-05, 00:17:04,VALID,917.624,VALID,0,VALID,95.4375,VALID,0,VALID,19.8588,VALID,1,VALID,0.0335938,
2011-12-05, 00:18:04,VALID,917.631,VALID,0,VALID,95.2775,VALID,0,VALID,19.8378,VALID,1,VALID,0,
2011-12-05, 00:19:04,VALID,917.629,VALID,0,VALID,95.1555,VALID,0,VALID,19.8183,VALID,1,VALID,0,
2011-12-05, 00:20:04,VALID,917.626,VALID,0,VALID,95.0945,VALID,0,VALID,19.8573,VALID,1,VALID,0,
2011-12-05, 00:21:04,VALID,917.605,VALID,0,VALID,94.5913,VALID,0,VALID,19.7598,VALID,1,VALID,0,
2011-12-05, 00:22:04,VALID,917.602,VALID,0,VALID,94.82,VALID,0,VALID,19.7403,VALID,1,VALID,0.432422,
2011-12-05, 00:23:04,VALID,917.571,VALID,0,VALID,95.4604,VALID,0,VALID,19.7988,VALID,1,VALID,0.539453,
2011-12-05, 00:24:04,VALID,917.583,VALID,0,VALID,95.6281,VALID,0.107441,VALID,19.8378,VALID,1,VALID,0.597266,
2011-12-05, 00:25:04,VALID,917.57,VALID,0,VALID,95.9712,VALID,0,VALID,19.8768,VALID,1,VALID,0.841797,
2011-12-05, 00:26:04,VALID,917.578,VALID,0,VALID,95.9712,VALID,0,VALID,19.8573,VALID,1,VALID,1.18672,
2011-12-05, 00:27:04,VALID,917.576,VALID,0,VALID,96.1008,VALID,0,VALID,19.8768,VALID,1,VALID,1.07422,
2011-12-05, 00:28:04,VALID,917.555,VALID,0,VALID,95.9102,VALID,0,VALID,19.8573,VALID,1,VALID,0.892578,
2011-12-05, 00:29:04,VALID,917.563,VALID,0,VALID,95.9407,VALID,0,VALID,19.8978,VALID,1,VALID,0.989844,
2011-12-05, 00:30:04,VALID,917.522,VALID,0,VALID,95.651,VALID,0,VALID,19.7988,VALID,1,VALID,0.988281,
2011-12-05, 00:31:04,VALID,917.51,VALID,0,VALID,95.712,VALID,0,VALID,19.7793,VALID,1,VALID,1.36641,
2011-12-05, 00:32:04,VALID,917.536,VALID,0,VALID,95.8187,VALID,0,VALID,19.7988,VALID,1,VALID,1.36172,
2011-12-05, 00:33:04,VALID,917.525,VALID,0,VALID,95.7501,VALID,0,VALID,19.8003,VALID,1,VALID,0.792188,
2011-12-05, 00:34:04,VALID,917.493,VALID,0,VALID,95.834,VALID,0,VALID,19.7808,VALID,1,VALID,0.945313,
2011-12-05, 00:35:04,VALID,917.527,VALID,0,VALID,95.895,VALID,0,VALID,19.8198,VALID,1,VALID,0.850391,
2011-12-05, 00:36:04,VALID,917.53,VALID,0,VALID,95.8568,VALID,0,VALID,19.8198,VALID,1,VALID,0.507813,
2011-12-05, 00:37:04,VALID,917.49,VALID,0,VALID,95.8645,VALID,0,VALID,19.8198,VALID,1,VALID,0.592578,
2011-12-05, 00:38:04,VALID,917.523,VALID,0,VALID,95.8035,VALID,0,VALID,19.8408,VALID,1,VALID,0.475391,
2011-12-05, 00:39:04,VALID,917.5,VALID,0,VALID,95.9026,VALID,0,VALID,19.8198,VALID,1,VALID,0.620703,
2011-12-05, 00:40:04,VALID,917.496,VALID,0,VALID,95.8111,VALID,0,VALID,19.8408,VALID,1,VALID,0.59375,
2011-12-05, 00:41:04,VALID,917.487,VALID,0,VALID,95.7501,VALID,0,VALID,19.8213,VALID,1,VALID,0.311328,
2011-12-05, 00:42:04,VALID,917.492,VALID,0,VALID,95.8035,VALID,0,VALID,19.8198,VALID,1,VALID,0.366016,
2011-12-05, 00:43:04,VALID,917.503,VALID,0,VALID,95.7654,VALID,0,VALID,19.8588,VALID,1,VALID,0.040625,
2011-12-05, 00:44:04,VALID,917.468,VALID,0,VALID,95.6739,VALID,0,VALID,19.8783,VALID,1,VALID,0.0996094,
2011-12-05, 00:45:04,VALID,917.437,VALID,0,VALID,95.5138,VALID,0,VALID,19.8588,VALID,1,VALID,0,
2011-12-05, 00:46:04,VALID,917.397,VALID,0,VALID,95.3994,VALID,0,VALID,19.8783,VALID,1,VALID,0,
2011-12-05, 00:47:04,VALID,917.394,VALID,0,VALID,94.9801,VALID,0,VALID,19.8003,VALID,1,VALID,0,
2011-12-05, 00:48:04,VALID,917.388,VALID,0,VALID,94.7896,VALID,0,VALID,19.8183,VALID,1,VALID,0.379687,
2011-12-05, 00:49:04,VALID,917.374,VALID,0,VALID,94.9573,VALID,0,VALID,19.8378,VALID,1,VALID,0.487891,
2011-12-05, 00:50:04,VALID,917.388,VALID,0,VALID,95.3918,VALID,0,VALID,19.9368,VALID,1,VALID,0.326562,
2011-12-05, 00:51:04,VALID,917.38,VALID,0,VALID,95.5976,VALID,0,VALID,19.9758,VALID,1,VALID,0.235547,
2011-12-05, 00:52:04,VALID,917.389,VALID,0,VALID,95.7349,VALID,0,VALID,19.9743,VALID,1,VALID,0.282422,
2011-12-05, 00:53:04,VALID,917.37,VALID,0,VALID,95.712,VALID,0,VALID,19.9938,VALID,1,VALID,0,
2011-12-05, 00:54:04,VALID,917.328,VALID,0,VALID,95.4985,VALID,0,VALID,19.9563,VALID,1,VALID,0.0804688,
2011-12-05, 00:55:04,VALID,917.323,VALID,0,VALID,95.5595,VALID,0,VALID,19.9353,VALID,1,VALID,0,
2011-12-05, 00:56:04,VALID,917.296,VALID,0,VALID,95.5976,VALID,0,VALID,19.9548,VALID,1,VALID,0,
2011-12-05, 00:57:04,VALID,917.247,VALID,0,VALID,95.4604,VALID,0,VALID,19.9563,VALID,1,VALID,0,
2011-12-05, 00:58:04,VALID,917.25,VALID,0,VALID,95.3918,VALID,0,VALID,19.9353,VALID,1,VALID,0,
2011-12-05, 00:59:04,VALID,917.23,VALID,0,VALID,94.942,VALID,0,VALID,19.8768,VALID,1,VALID,0,
2011-12-05, 01:00:04,VALID,917.229,VALID,0,VALID,95.0488,VALID,0,VALID,19.8768,VALID,1,VALID,0,
2011-12-05, 01:01:04,VALID,917.246,VALID,0,VALID,95.2927,VALID,0,VALID,19.9158,VALID,1,VALID,0,
2011-12-05, 01:02:04,VALID,917.208,VALID,0,VALID,95.1631,VALID,0,VALID,19.8768,VALID,1,VALID,0,
2011-12-05, 01:03:04,VALID,917.199,VALID,0,VALID,95.3613,VALID,0,VALID,19.8978,VALID,1,VALID,0,
2011-12-05, 01:04:04,VALID,917.212,VALID,0,VALID,95.4833,VALID,0.107441,VALID,19.9158,VALID,1,VALID,0,
2011-12-05, 01:05:04,VALID,917.179,VALID,0,VALID,95.4985,VALID,0,VALID,19.9353,VALID,1,VALID,0,
2011-12-05, 01:06:04,VALID,917.123,VALID,0,VALID,95.3689,VALID,0.107441,VALID,19.8768,VALID,1,VALID,0,
2011-12-05, 01:07:04,VALID,917.11,VALID,0,VALID,95.0716,VALID,0,VALID,19.7988,VALID,1,VALID,0.295703,
2011-12-05, 01:08:04,VALID,917.097,VALID,0,VALID,95.4909,VALID,0,VALID,19.8198,VALID,1,VALID,0.6375,
2011-12-05, 01:09:04,VALID,917.092,VALID,0,VALID,95.5443,VALID,0,VALID,19.8003,VALID,1,VALID,0.609375,
2011-12-05, 01:10:04,VALID,917.083,VALID,0,VALID,95.2088,VALID,0,VALID,19.7208,VALID,1,VALID,0.676172,
2011-12-05, 01:11:04,VALID,917.086,VALID,0,VALID,94.9954,VALID,0,VALID,19.6443,VALID,1,VALID,0.451172,
2011-12-05, 01:12:04,VALID,917.081,VALID,0,VALID,95.1555,VALID,0,VALID,19.6428,VALID,1,VALID,0.646875,
2011-12-05, 01:13:04,VALID,917.064,VALID,0,VALID,94.9954,VALID,0,VALID,19.6848,VALID,1,VALID,0.850781,
2011-12-05, 01:14:04,VALID,917.052,VALID,0,VALID,94.8277,VALID,0,VALID,19.6233,VALID,1,VALID,0.451953,
2011-12-05, 01:15:04,VALID,917.038,VALID,0,VALID,94.538,VALID,0,VALID,19.6233,VALID,1,VALID,0.619141,
2011-12-05, 01:16:04,VALID,917.023,VALID,0,VALID,94.2864,VALID,0,VALID,19.6248,VALID,1,VALID,0.476953,
2011-12-05, 01:17:04,VALID,916.981,VALID,0,VALID,93.9129,VALID,0.107441,VALID,19.5843,VALID,1,VALID,0.93125,
2011-12-05, 01:18:04,VALID,916.979,VALID,0,VALID,93.7451,VALID,0,VALID,19.5678,VALID,1,VALID,1.17773,
2011-12-05, 01:19:04,VALID,916.944,VALID,0,VALID,93.4097,VALID,0,VALID,19.5678,VALID,1,VALID,1.04922,
2011-12-05, 01:20:04,VALID,916.951,VALID,0,VALID,93.2344,VALID,0,VALID,19.5273,VALID,1,VALID,0.889063,
2011-12-05, 01:21:04,VALID,916.896,VALID,0,VALID,93.2801,VALID,0,VALID,19.5288,VALID,1,VALID,0.586328,
2011-12-05, 01:22:04,VALID,916.885,VALID,0,VALID,93.2649,VALID,0,VALID,19.5483,VALID,1,VALID,0.441016,
2011-12-05, 01:23:04,VALID,916.876,VALID,0,VALID,93.2801,VALID,0,VALID,19.5483,VALID,1,VALID,0.202344,
2011-12-05, 01:24:04,VALID,916.844,VALID,0,VALID,93.1505,VALID,0,VALID,19.5273,VALID,1,VALID,0.330469,
2011-12-05, 01:25:04,VALID,916.838,VALID,0,VALID,93.12,VALID,0,VALID,19.5273,VALID,1,VALID,0.376953,
2011-12-05, 01:26:04,VALID,916.803,VALID,0,VALID,93.1886,VALID,0,VALID,19.5288,VALID,1,VALID,0.247656,
2011-12-05, 01:27:04,VALID,916.777,VALID,0,VALID,93.4021,VALID,0,VALID,19.5288,VALID,1,VALID,0.632422,
2011-12-05, 01:28:04,VALID,916.721,VALID,0,VALID,93.5698,VALID,0,VALID,19.5483,VALID,1,VALID,0.818359,
2011-12-05, 01:29:04,VALID,916.705,VALID,0,VALID,93.3182,VALID,0,VALID,19.5273,VALID,1,VALID,0.859766,
2011-12-05, 01:30:04,VALID,916.667,VALID,0,VALID,92.9371,VALID,0,VALID,19.5483,VALID,1,VALID,0.989062,
2011-12-05, 01:31:04,VALID,916.654,VALID,0,VALID,92.6626,VALID,0,VALID,19.5468,VALID,1,VALID,0.897266,
2011-12-05, 01:32:04,VALID,916.669,VALID,0,VALID,92.655,VALID,0,VALID,19.5873,VALID,1,VALID,0.897656,
2011-12-05, 01:33:04,VALID,916.667,VALID,0,VALID,92.7007,VALID,0,VALID,19.5678,VALID,1,VALID,0.582422,
2011-12-05, 01:34:04,VALID,916.684,VALID,0,VALID,92.5025,VALID,0,VALID,19.5273,VALID,1,VALID,0.457031,
2011-12-05, 01:35:04,VALID,916.647,VALID,0,VALID,92.3348,VALID,0,VALID,19.4298,VALID,1,VALID,0.627344,
2011-12-05, 01:36:04,VALID,916.623,VALID,0,VALID,92.2967,VALID,0,VALID,19.3518,VALID,1,VALID,0.641016,
2011-12-05, 01:37:04,VALID,916.625,VALID,0,VALID,93.5546,VALID,0,VALID,19.3143,VALID,1,VALID,0.846484,
2011-12-05, 01:38:04,VALID,916.629,VALID,0,VALID,94.1034,VALID,0,VALID,19.3143,VALID,1,VALID,0.845703,
2011-12-05, 01:39:04,VALID,916.598,VALID,0,VALID,94.2712,VALID,0,VALID,19.2738,VALID,1,VALID,0.609766,
2011-12-05, 01:40:04,VALID,916.606,VALID,0,VALID,94.6142,VALID,0,VALID,19.2543,VALID,1,VALID,0.847656,
2011-12-05, 01:41:04,VALID,916.558,VALID,0,VALID,94.82,VALID,0,VALID,19.2348,VALID,1,VALID,0.596875,
2011-12-05, 01:42:04,VALID,916.543,VALID,0,VALID,94.9801,VALID,0,VALID,19.1958,VALID,1,VALID,0.619922,
2011-12-05, 01:43:04,VALID,916.545,VALID,0,VALID,95.1097,VALID,0,VALID,19.1749,VALID,1,VALID,0.213672,
2011-12-05, 01:44:04,VALID,916.504,VALID,0,VALID,95.1326,VALID,0,VALID,19.1958,VALID,1,VALID,0,
2011-12-05, 01:45:04,VALID,916.44,VALID,0,VALID,95.0716,VALID,0,VALID,19.1763,VALID,1,VALID,0,
2011-12-05, 01:46:04,VALID,916.417,VALID,0,VALID,94.9039,VALID,0,VALID,19.1568,VALID,1,VALID,0,
2011-12-05, 01:47:04,VALID,916.42,VALID,0,VALID,94.881,VALID,0,VALID,19.1568,VALID,1,VALID,0.151172,
2011-12-05, 01:48:04,VALID,916.4,VALID,0,VALID,94.9954,VALID,0,VALID,19.1373,VALID,1,VALID,0.469922,
2011-12-05, 01:49:04,VALID,916.373,VALID,0,VALID,94.9954,VALID,0,VALID,19.1554,VALID,1,VALID,0.396484,
2011-12-05, 01:50:04,VALID,916.346,VALID,0,VALID,94.942,VALID,0,VALID,19.1763,VALID,1,VALID,0.212109,
2011-12-05, 01:51:04,VALID,916.321,VALID,0,VALID,94.9192,VALID,0,VALID,19.1763,VALID,1,VALID,0.369141,
2011-12-05, 01:52:04,VALID,916.304,VALID,0,VALID,94.942,VALID,0,VALID,19.1763,VALID,1,VALID,0.460547,
2011-12-05, 01:53:04,VALID,916.294,VALID,0,VALID,94.9954,VALID,0,VALID,19.1763,VALID,1,VALID,0.59375,
2011-12-05, 01:54:04,VALID,916.275,VALID,0,VALID,95.1021,VALID,0,VALID,19.1373,VALID,1,VALID,0.640625,
2011-12-05, 01:55:04,VALID,916.231,VALID,0,VALID,95.2241,VALID,0,VALID,19.1373,VALID,1,VALID,0.592188,
2011-12-05, 01:56:04,VALID,916.221,VALID,0,VALID,95.2851,VALID,0,VALID,19.1373,VALID,1,VALID,0.290234,
2011-12-05, 01:57:04,VALID,916.209,VALID,0,VALID,95.3308,VALID,0,VALID,19.1178,VALID,1,VALID,0.638672,
2011-12-05, 01:58:04,VALID,916.189,VALID,0,VALID,95.3994,VALID,0,VALID,19.1373,VALID,1,VALID,0.575781,
2011-12-05, 01:59:04,VALID,916.197,VALID,0,VALID,95.2012,VALID,0,VALID,19.1763,VALID,1,VALID,0.792969,
2011-12-05, 02:00:04,VALID,916.164,VALID,0,VALID,95.0869,VALID,0,VALID,19.2738,VALID,1,VALID,0.450391,
2011-12-05, 02:01:04,VALID,916.144,VALID,0,VALID,94.942,VALID,0,VALID,19.2933,VALID,1,VALID,0.267969,
2011-12-05, 02:02:04,VALID,916.142,VALID,0,VALID,94.5227,VALID,0,VALID,19.1749,VALID,1,VALID,0.835547,
2011-12-05, 02:03:04,VALID,916.143,VALID,0,VALID,94.7209,VALID,0,VALID,19.1583,VALID,1,VALID,0.887109,
2011-12-05, 02:04:04,VALID,916.165,VALID,0,VALID,94.8124,VALID,0,VALID,19.0803,VALID,1,VALID,0.422656,
2011-12-05, 02:05:04,VALID,916.127,VALID,0,VALID,94.9725,VALID,0,VALID,19.0398,VALID,1,VALID,0.961328,
2011-12-05, 02:06:04,VALID,916.175,VALID,0,VALID,95.125,VALID,0,VALID,19.0023,VALID,1,VALID,0.868359,
2011-12-05, 02:07:04,VALID,916.18,VALID,0,VALID,95.4528,VALID,0,VALID,19.0023,VALID,1,VALID,0.711719,
2011-12-05, 02:08:04,VALID,916.169,VALID,0,VALID,95.7806,VALID,0,VALID,19.0413,VALID,1,VALID,0.841406,
2011-12-05, 02:09:04,VALID,916.161,VALID,0,VALID,96.0093,VALID,0,VALID,19.0608,VALID,1,VALID,1.10234,
2011-12-05, 02:10:04,VALID,916.162,VALID,0,VALID,96.0779,VALID,0,VALID,19.0023,VALID,1,VALID,0.858594,
2011-12-05, 02:11:04,VALID,916.157,VALID,0,VALID,96.1618,VALID,0,VALID,18.9828,VALID,1,VALID,0.785156,
2011-12-05, 02:12:04,VALID,916.149,VALID,0,VALID,96.2533,VALID,0,VALID,18.9633,VALID,1,VALID,0.759766,
2011-12-05, 02:13:04,VALID,916.165,VALID,0,VALID,96.3447,VALID,0,VALID,18.9633,VALID,1,VALID,0.858594,
2011-12-05, 02:14:04,VALID,916.164,VALID,0,VALID,96.4362,VALID,0,VALID,18.9828,VALID,1,VALID,0.905469,
2011-12-05, 02:15:04,VALID,916.15,VALID,0,VALID,96.5353,VALID,0,VALID,18.9647,VALID,1,VALID,1.03711,
2011-12-05, 02:16:04,VALID,916.118,VALID,0,VALID,96.642,VALID,0,VALID,19.0023,VALID,1,VALID,1.01602,
2011-12-05, 02:17:04,VALID,916.143,VALID,0,VALID,96.703,VALID,0,VALID,19.0037,VALID,1,VALID,0.678906,
2011-12-05, 02:18:04,VALID,916.118,VALID,0,VALID,96.6878,VALID,0,VALID,18.9229,VALID,1,VALID,0.821484,
2011-12-05, 02:19:04,VALID,916.078,VALID,0,VALID,96.7793,VALID,0,VALID,18.9424,VALID,1,VALID,1.11875,
2011-12-05, 02:20:04,VALID,916.068,VALID,0,VALID,96.8098,VALID,0,VALID,18.9633,VALID,1,VALID,0.853125,
2011-12-05, 02:21:04,VALID,916.05,VALID,0,VALID,96.8403,VALID,0,VALID,18.9019,VALID,1,VALID,0.773828,
2011-12-05, 02:22:04,VALID,916.051,VALID,0,VALID,96.8784,VALID,0,VALID,18.9243,VALID,1,VALID,0.665625,
2011-12-05, 02:23:04,VALID,916.04,VALID,0,VALID,96.9241,VALID,0,VALID,18.8824,VALID,1,VALID,0.855469,
2011-12-05, 02:24:04,VALID,916.03,VALID,0,VALID,96.9851,VALID,0.107441,VALID,18.9229,VALID,1,VALID,0.676562,
2011-12-05, 02:25:04,VALID,916.016,VALID,0,VALID,97.008,VALID,0,VALID,18.9229,VALID,1,VALID,0.800781,
2011-12-05, 02:26:04,VALID,916.022,VALID,0,VALID,97.069,VALID,0,VALID,18.9619,VALID,1,VALID,0.989844,
2011-12-05, 02:27:04,VALID,916.011,VALID,0,VALID,97.0537,VALID,0,VALID,18.9019,VALID,1,VALID,0.658984,
2011-12-05, 02:28:04,VALID,915.965,VALID,0,VALID,97.069,VALID,0,VALID,18.9229,VALID,1,VALID,0.755859,
2011-12-05, 02:29:04,VALID,915.976,VALID,0,VALID,97.1299,VALID,0,VALID,18.9229,VALID,1,VALID,0.791797,
2011-12-05, 02:30:04,VALID,915.981,VALID,0,VALID,97.1299,VALID,0,VALID,18.9034,VALID,1,VALID,0.573438,
2011-12-05, 02:31:04,VALID,915.946,VALID,0,VALID,97.1376,VALID,0,VALID,18.8839,VALID,1,VALID,0.599219,
2011-12-05, 02:32:04,VALID,915.941,VALID,0,VALID,97.1681,VALID,0,VALID,18.8644,VALID,1,VALID,0.834766,
2011-12-05, 02:33:04,VALID,915.947,VALID,0,VALID,97.1757,VALID,0,VALID,18.8644,VALID,1,VALID,0.634375,
2011-12-05, 02:34:04,VALID,915.932,VALID,0,VALID,97.1681,VALID,0,VALID,18.8449,VALID,1,VALID,0.539844,
2011-12-05, 02:35:04,VALID,915.922,VALID,0,VALID,97.1833,VALID,0,VALID,18.8254,VALID,1,VALID,0.373047,
2011-12-05, 02:36:04,VALID,915.932,VALID,0,VALID,97.1833,VALID,0,VALID,18.8059,VALID,1,VALID,0.882031,
2011-12-05, 02:37:04,VALID,915.943,VALID,0,VALID,97.1299,VALID,0,VALID,18.7878,VALID,1,VALID,0.686719,
2011-12-05, 02:38:04,VALID,915.925,VALID,0,VALID,97.1681,VALID,0,VALID,18.7488,VALID,1,VALID,0.853516,
2011-12-05, 02:39:04,VALID,915.91,VALID,0,VALID,97.1528,VALID,0,VALID,18.7474,VALID,1,VALID,1.07148,
2011-12-05, 02:40:04,VALID,915.915,VALID,0,VALID,97.1604,VALID,0,VALID,18.7084,VALID,1,VALID,0.992188,
2011-12-05, 02:41:04,VALID,915.926,VALID,0,VALID,97.1223,VALID,0,VALID,18.6889,VALID,1,VALID,0.947656,
2011-12-05, 02:42:04,VALID,915.954,VALID,0,VALID,97.0918,VALID,0,VALID,18.7098,VALID,1,VALID,1.02422,
2011-12-05, 02:43:04,VALID,915.942,VALID,0,VALID,97.0842,VALID,0,VALID,18.6889,VALID,1,VALID,0.602344,
2011-12-05, 02:44:04,VALID,915.919,VALID,0,VALID,97.0461,VALID,0,VALID,18.6694,VALID,1,VALID,0.676953,
2011-12-05, 02:45:04,VALID,915.916,VALID,0,VALID,97.0232,VALID,0,VALID,18.6499,VALID,1,VALID,0.850781,
2011-12-05, 02:46:04,VALID,915.893,VALID,0,VALID,97.0156,VALID,0,VALID,18.6513,VALID,1,VALID,0.984375,
2011-12-05, 02:47:04,VALID,915.852,VALID,0,VALID,97.0994,VALID,0,VALID,18.6708,VALID,1,VALID,1.23086,
2011-12-05, 02:48:04,VALID,915.842,VALID,0,VALID,97.1604,VALID,0,VALID,18.7293,VALID,1,VALID,1.01875,
2011-12-05, 02:49:04,VALID,915.819,VALID,0,VALID,97.1528,VALID,0,VALID,18.7084,VALID,1,VALID,0.768359,
2011-12-05, 02:50:04,VALID,915.839,VALID,0,VALID,97.1681,VALID,0,VALID,18.7293,VALID,1,VALID,0.631641,
2011-12-05, 02:51:04,VALID,915.865,VALID,0,VALID,97.1528,VALID,0,VALID,18.7098,VALID,1,VALID,0.520703,
2011-12-05, 02:52:04,VALID,915.846,VALID,0,VALID,97.1528,VALID,0,VALID,18.6889,VALID,1,VALID,0.560547,
2011-12-05, 02:53:04,VALID,915.858,VALID,0,VALID,97.1757,VALID,0,VALID,18.6889,VALID,1,VALID,0.564062,
2011-12-05, 02:54:04,VALID,915.875,VALID,0,VALID,97.1909,VALID,0,VALID,18.7084,VALID,1,VALID,0.494922,
2011-12-05, 02:55:04,VALID,915.885,VALID,0,VALID,97.1833,VALID,0,VALID,18.7098,VALID,1,VALID,0.575781,
2011-12-05, 02:56:04,VALID,915.898,VALID,0,VALID,97.1681,VALID,0,VALID,18.6499,VALID,1,VALID,0.640234,
2011-12-05, 02:57:04,VALID,915.888,VALID,0,VALID,97.1986,VALID,0,VALID,18.6694,VALID,1,VALID,0.65,
2011-12-05, 02:58:04,VALID,915.88,VALID,0,VALID,97.229,VALID,0.107441,VALID,18.6889,VALID,1,VALID,0.772266,
2011-12-05, 02:59:04,VALID,915.872,VALID,0,VALID,97.2367,VALID,0,VALID,18.6694,VALID,1,VALID,0.622656,
2011-12-05, 03:00:04,VALID,915.891,VALID,0,VALID,97.2367,VALID,0,VALID,18.6694,VALID,1,VALID,0.766406,
2011-12-05, 03:01:04,VALID,915.903,VALID,0,VALID,97.2519,VALID,0,VALID,18.6499,VALID,1,VALID,0.775781,
2011-12-05, 03:02:04,VALID,915.907,VALID,0,VALID,97.229,VALID,0,VALID,18.6499,VALID,1,VALID,0.776953,
2011-12-05, 03:03:04,VALID,915.894,VALID,0,VALID,97.1757,VALID,0,VALID,18.6304,VALID,1,VALID,0.721094,
2011-12-05, 03:04:04,VALID,915.914,VALID,0,VALID,97.1528,VALID,0,VALID,18.572,VALID,1,VALID,0.745313,
2011-12-05, 03:05:04,VALID,915.95,VALID,0,VALID,97.1223,VALID,0,VALID,18.533,VALID,1,VALID,0.884766,
2011-12-05, 03:06:04,VALID,915.917,VALID,0,VALID,97.1528,VALID,0.107441,VALID,18.5135,VALID,1,VALID,1.12305,
2011-12-05, 03:07:04,VALID,915.958,VALID,0,VALID,97.2062,VALID,0,VALID,18.5344,VALID,1,VALID,1.1457,
2011-12-05, 03:08:04,VALID,915.961,VALID,0,VALID,97.1528,VALID,0,VALID,18.455,VALID,1,VALID,0.93125,
2011-12-05, 03:09:04,VALID,915.967,VALID,0,VALID,97.2672,VALID,0,VALID,18.5149,VALID,1,VALID,1.21641,
2011-12-05, 03:10:04,VALID,915.968,VALID,0,VALID,97.2672,VALID,0,VALID,18.4745,VALID,1,VALID,0.952734,
2011-12-05, 03:11:04,VALID,915.94,VALID,0,VALID,97.2595,VALID,0,VALID,18.4355,VALID,1,VALID,1.05469,
2011-12-05, 03:12:04,VALID,915.98,VALID,0,VALID,97.3586,VALID,0,VALID,18.4745,VALID,1,VALID,1.12656,
2011-12-05, 03:13:04,VALID,915.973,VALID,0,VALID,97.3739,VALID,0,VALID,18.4759,VALID,1,VALID,0.835938,
2011-12-05, 03:14:04,VALID,915.999,VALID,0,VALID,97.3434,VALID,0,VALID,18.4369,VALID,1,VALID,0.829687,
2011-12-05, 03:15:04,VALID,915.984,VALID,0,VALID,97.3129,VALID,0,VALID,18.3965,VALID,1,VALID,0.336328,
2011-12-05, 03:16:04,VALID,916,VALID,0,VALID,97.3281,VALID,0,VALID,18.377,VALID,1,VALID,0.653125,
2011-12-05, 03:17:04,VALID,916.004,VALID,0,VALID,97.412,VALID,0,VALID,18.377,VALID,1,VALID,0.696875,
2011-12-05, 03:18:04,VALID,915.968,VALID,0,VALID,97.4654,VALID,0,VALID,18.4369,VALID,1,VALID,0.916016,
2011-12-05, 03:19:04,VALID,915.985,VALID,0,VALID,97.5187,VALID,0.107441,VALID,18.4954,VALID,1,VALID,1.15117,
2011-12-05, 03:20:04,VALID,915.978,VALID,0,VALID,97.4959,VALID,0,VALID,18.494,VALID,1,VALID,0.732813,
2011-12-05, 03:21:04,VALID,915.996,VALID,0,VALID,97.5187,VALID,0,VALID,18.494,VALID,1,VALID,0.451562,
2011-12-05, 03:22:04,VALID,916.011,VALID,0,VALID,97.4959,VALID,0,VALID,18.494,VALID,1,VALID,1.01719,
2011-12-05, 03:23:04,VALID,915.993,VALID,0,VALID,97.4882,VALID,0,VALID,18.4954,VALID,1,VALID,0.815625,
2011-12-05, 03:24:04,VALID,915.983,VALID,0,VALID,97.4959,VALID,0,VALID,18.494,VALID,1,VALID,0.496484,
2011-12-05, 03:25:04,VALID,915.984,VALID,0,VALID,97.5111,VALID,0,VALID,18.4745,VALID,1,VALID,0.201172,
2011-12-05, 03:26:04,VALID,915.959,VALID,0,VALID,97.4654,VALID,0,VALID,18.4564,VALID,1,VALID,0.241797,
2011-12-05, 03:27:04,VALID,915.992,VALID,0,VALID,97.4577,VALID,0,VALID,18.4174,VALID,1,VALID,0.494531,
2011-12-05, 03:28:04,VALID,915.997,VALID,0,VALID,97.4654,VALID,0,VALID,18.3965,VALID,1,VALID,0.275391,
2011-12-05, 03:29:04,VALID,915.989,VALID,0,VALID,97.5264,VALID,0,VALID,18.416,VALID,1,VALID,0.853125,
2011-12-05, 03:30:04,VALID,916.024,VALID,0,VALID,97.5645,VALID,0,VALID,18.4355,VALID,1,VALID,0.609375,
2011-12-05, 03:31:04,VALID,916.077,VALID,0,VALID,97.5645,VALID,0,VALID,18.455,VALID,1,VALID,0.724219,
2011-12-05, 03:32:04,VALID,916.066,VALID,0,VALID,97.5797,VALID,0,VALID,18.4745,VALID,1,VALID,0.533594,
2011-12-05, 03:33:04,VALID,916.081,VALID,0,VALID,97.595,VALID,0,VALID,18.4745,VALID,1,VALID,0.589453,
2011-12-05, 03:34:04,VALID,916.098,VALID,0,VALID,97.5492,VALID,0,VALID,18.4355,VALID,1,VALID,0.534766,
2011-12-05, 03:35:04,VALID,916.138,VALID,0,VALID,97.5873,VALID,0,VALID,18.5149,VALID,1,VALID,1.11641,
2011-12-05, 03:36:04,VALID,916.105,VALID,0,VALID,97.6407,VALID,0,VALID,18.5344,VALID,1,VALID,0.99375,
2011-12-05, 03:37:04,VALID,916.162,VALID,0,VALID,97.6407,VALID,0,VALID,18.5734,VALID,1,VALID,0.743359,
2011-12-05, 03:38:04,VALID,916.129,VALID,0,VALID,97.6255,VALID,0,VALID,18.5734,VALID,1,VALID,0.793359,
2011-12-05, 03:39:04,VALID,916.133,VALID,0,VALID,97.5797,VALID,0,VALID,18.5344,VALID,1,VALID,0.669531,
2011-12-05, 03:40:04,VALID,916.124,VALID,0,VALID,97.5492,VALID,0,VALID,18.4759,VALID,1,VALID,0.580469,
2011-12-05, 03:41:04,VALID,916.117,VALID,0,VALID,97.5492,VALID,0,VALID,18.455,VALID,1,VALID,0.873047,
2011-12-05, 03:42:04,VALID,916.144,VALID,0,VALID,97.5721,VALID,0,VALID,18.4564,VALID,1,VALID,1.19102,
2011-12-05, 03:43:04,VALID,916.126,VALID,0,VALID,97.5569,VALID,0,VALID,18.4564,VALID,1,VALID,1.21953,
2011-12-05, 03:44:04,VALID,916.107,VALID,0,VALID,97.5416,VALID,0,VALID,18.4369,VALID,1,VALID,1.19023,
2011-12-05, 03:45:04,VALID,916.115,VALID,0,VALID,97.534,VALID,0,VALID,18.416,VALID,1,VALID,0.605078,
2011-12-05, 03:46:04,VALID,916.077,VALID,0,VALID,97.5187,VALID,0,VALID,18.4174,VALID,1,VALID,0.446484,
2011-12-05, 03:47:04,VALID,916.083,VALID,0,VALID,97.4882,VALID,0,VALID,18.4174,VALID,1,VALID,1.04102,
2011-12-05, 03:48:04,VALID,916.08,VALID,0,VALID,97.4425,VALID,0,VALID,18.3979,VALID,1,VALID,0.770312,
2011-12-05, 03:49:04,VALID,916.063,VALID,0,VALID,97.412,VALID,0,VALID,18.3979,VALID,1,VALID,0.772656,
2011-12-05, 03:50:04,VALID,916.078,VALID,0,VALID,97.3968,VALID,0,VALID,18.3979,VALID,1,VALID,0.844141,